RH
4 3 8 16 16 20 23 18 18 14 20 32 35 31 28 21 17 20 20 16 14 10 10 15 16 13 11 6 5 4 3 3 3 4 4 4 5 6 6 9 9 9 10
7 5 4 5 15 17 18 20 24 20 16 14 18 37 39 31 22 15 18 19 15 11 12 14 18 17 13 10 6 6 5 4 4 4 4 4 5 6 6 8 8 9 10
8 7 5 4 4 10 17 17 19 20 19 18 16 13 25 36 33 23 16 16 18 14 9 11 15 18 18 14 11 8 7 6 6 6 6 6 6 6 6 7 8 9 10
8 7 8 6 5 5 7 12 15 19 19 22 21 18 16 16 26 29 23 19 15 18 13 8 10 15 18 18 16 12 10 10 9 8 9 8 8 7 8 8 8 8 9
9 8 8 8 7 7 7 6 6 13 19 19 24 25 18 18 12 15 20 22 19 16 15 13 7 8 14 18 19 17 15 13 12 11 10 10 10 9 9 9 10 10 12
10 10 8 10 21 11 8 8 8 8 8 6 8 19 26 22 15 11 12 17 20 20 18 16 16 7 7 12 17 19 19 18 16 15 13 13 13 12 11 12 12 14 16
10 11 10 9 10 37 19 16 20 24 19 12 11 9 12 24 23 17 13 14 17 20 22 20 16 17 8 6 10 15 18 19 19 19 18 16 15 14 14 14 15 17 19
11 10 11 11 10 10 36 40 28 35 41 30 19 10 6 10 24 24 18 16 15 16 21 23 24 19 19 12 6 9 11 16 18 20 20 20 20 19 18 17 16 17 19
13 12 10 10 11 10 9 11 36 16 35 50 42 26 15 20 14 20 27 23 22 19 19 17 20 24 22 20 20 9 8 10 12 15 17 19 20 21 21 20 19 18 16
15 14 13 11 12 12 13 11 15 26 17 23 51 48 25 27 25 15 19 25 26 27 29 27 19 17 21 26 23 24 23 14 10 10 12 13 15 16 18 18 18 17 17
15 15 14 14 12 11 12 14 14 16 32 38 20 30 49 40 32 31 18 12 14 23 34 39 36 31 24 23 25 28 25 25 27 23 17 13 12 12 13 14 16 17 18
18 16 15 15 14 12 13 13 13 12 12 16 34 42 27 34 47 44 39 25 8 5 19 36 46 45 43 42 31 26 28 30 28 28 28 26 22 17 14 13 14 15 16
21 26 22 17 17 17 14 12 13 16 13 11 10 14 41 42 27 37 39 34 23 17 17 22 30 37 45 48 47 37 28 24 27 33 33 32 29 25 20 17 16 16 16
5 9 20 26 24 18 17 17 13 14 20 21 15 10 12 22 46 38 34 28 34 31 30 34 32 30 28 39 41 36 34 32 32 34 39 43 40 37 36 34 28 24 24
4 4 4 6 13 25 26 20 18 18 20 22 23 23 21 20 17 34 38 27 17 23 23 28 37 40 30 24 30 31 33 33 37 38 39 36 39 41 44 43 44 44 41
5 4 4 4 4 5 9 20 28 24 19 23 27 20 19 24 22 22 41 57 41 26 18 20 25 17 15 18 22 28 21 25 28 31 37 34 34 37 41 46 48 50 52
12 9 6 5 5 4 4 4 5 12 25 31 30 24 25 24 25 23 18 28 60 65 64 21 18 17 15 16 22 19 19 18 17 20 23 30 30 27 33 40 46 49 54
18 15 15 14 11 8 6 5 4 4 4 8 22 26 31 34 42 30 19 18 20 30 47 76 40 27 31 38 29 33 22 18 16 14 14 17 22 33 40 42 52 58 55
19 19 17 15 12 11 12 10 7 6 6 5 4 17 32 34 36 40 43 28 28 79 74 90 82 66 69 81 74 67 37 22 21 19 24 27 33 42 54 52 59 71 79
20 18 17 17 16 14 12 11 11 11 8 7 6 5 10 31 41 39 40 48 44 83 85 100 96 97 91 87 88 82 74 35 26 34 31 45 33 56 41 46 49 82 60
12 12 12 13 14 15 16 14 12 12 14 12 11 8 6 9 15 52 45 47 53 70 94 90 94 86 97 97 93 92 77 53 34 32 38 49 48 53 39 27 30 40 69
6 6 6 7 8 10 11 12 14 13 11 10 15 14 11 7 16 27 53 44 48 48 43 67 83 84 94 97 94 88 79 69 67 61 53 46 40 35 28 28 28 30 32
4 4 5 5 6 7 8 9 11 14 14 12 11 16 14 11 13 25 39 39 41 40 36 91 51 68 98 98 93 98 97 86 74 64 57 50 50 54 56 38 30 29 29
23 28 30 28 27 21 12 6 7 10 13 15 15 16 14 13 11 17 36 37 47 48 39 54 40 77 96 98 74 92 100 99 97 75 66 61 61 50 43 32 38 36 33
48 42 39 41 60 58 52 38 27 11 8 10 14 16 14 13 12 11 17 37 73 76 64 49 48 45 66 73 73 97 97 98 96 85 60 51 65 82 50 30 32 36 40
50 61 57 56 72 79 87 79 57 46 25 9 7 9 11 11 11 11 15 28 48 58 54 54 54 58 59 91 82 95 90 96 97 85 58 40 71 87 52 34 38 42 44
Wind_Speed
11 13 24 28 26 25 23 21 19 16 14 13 11 9 8 6 7 8 8 7 6 5 5 4 3 2 2 3 4 4 3 2 1 1 1 2 3 3 4 6 8 11 11
13 13 14 22 31 30 28 26 24 22 20 17 16 15 12 10 8 7 10 10 9 8 8 7 4 3 3 2 3 4 3 3 3 2 1 1 2 3 4 5 7 8 9
17 16 14 13 18 28 31 30 28 26 25 23 21 19 18 16 13 11 10 11 12 10 10 10 8 6 4 4 3 3 3 3 3 3 2 1 1 2 3 5 6 7 8
21 19 18 16 15 14 18 27 31 30 29 27 25 24 22 21 19 16 14 12 12 14 11 12 12 10 7 5 5 5 5 4 5 5 4 3 3 3 3 4 6 7 8
26 26 23 21 20 19 17 18 20 25 28 30 30 28 26 24 23 21 19 16 15 14 15 14 14 14 13 10 8 7 7 7 7 6 6 6 5 5 5 5 6 6 8
31 30 28 26 24 22 21 21 19 18 19 21 26 31 31 29 26 24 22 19 19 17 16 17 16 15 15 15 13 11 10 9 9 9 9 9 8 8 8 8 8 8 8
33 33 33 31 28 26 25 24 22 22 20 18 17 20 30 33 30 27 26 22 22 21 20 18 18 19 17 18 17 16 15 13 12 12 12 11 11 11 11 11 11 12 12
37 35 35 35 33 31 29 27 26 24 22 22 19 18 18 26 30 29 27 26 24 23 23 22 20 19 21 20 20 20 19 18 17 16 16 15 15 14 14 15 15 15 15
41 39 38 38 37 36 34 32 30 28 26 25 23 21 19 17 21 30 32 31 29 26 25 25 24 23 21 22 23 21 21 20 20 19 19 19 19 19 19 18 18 19 19
44 42 41 40 40 39 39 37 35 32 31 29 27 25 21 21 19 19 24 30 34 33 30 29 27 27 26 25 24 24 24 22 22 22 23 22 22 23 22 22 22 22 22
46 46 44 44 42 42 41 41 40 37 35 31 31 28 25 26 25 24 23 23 26 30 33 33 31 29 29 29 28 26 25 25 26 25 25 24 25 25 25 25 25 25 25
47 48 48 47 47 44 44 43 42 42 41 38 35 32 31 29 29 28 27 25 24 24 28 31 32 32 31 30 30 29 27 27 27 26 28 28 28 27 27 27 27 27 28
46 48 49 49 50 49 46 46 44 45 45 43 41 39 36 34 33 32 30 29 27 25 26 28 29 33 34 33 31 31 31 30 30 28 28 28 29 29 28 28 29 29 30
32 38 46 50 52 51 51 49 48 47 46 47 46 45 43 40 38 36 32 32 30 30 28 27 29 30 33 35 36 35 34 32 32 31 30 29 29 30 30 30 30 31 31
35 34 35 38 45 51 53 52 52 51 49 49 49 49 48 46 45 42 39 38 36 35 33 32 32 31 31 31 31 33 35 35 34 33 32 33 33 33 32 32 33 33 33
41 41 40 39 38 40 45 51 52 54 54 52 52 52 52 50 48 47 44 41 40 41 38 36 36 36 35 34 33 33 34 34 34 34 34 35 35 35 35 35 35 36 36
46 47 48 48 46 44 43 43 43 46 53 56 55 54 54 53 51 51 51 46 44 44 43 43 39 41 40 38 36 37 36 35 35 35 35 35 36 36 37 37 38 39 40
48 48 50 52 53 53 52 51 49 46 46 49 55 57 57 56 54 54 53 51 48 48 47 45 44 44 43 42 42 40 38 36 35 33 31 31 31 32 35 37 38 40 41
53 53 53 56 57 57 57 57 56 56 54 53 50 53 57 58 58 58 54 53 51 41 42 44 46 45 42 41 42 39 42 41 39 37 34 33 32 35 33 37 37 38 43
57 57 57 58 61 61 61 61 62 60 61 58 58 53 52 57 58 59 56 54 51 49 46 36 44 44 45 47 45 44 43 43 43 41 36 36 38 36 39 39 41 41 41
57 59 59 61 63 66 66 66 66 65 64 63 63 61 56 53 56 58 60 58 57 55 49 44 39 39 46 42 42 45 46 47 43 41 38 38 38 40 41 40 41 45 45
64 67 69 69 70 70 70 71 71 71 69 67 65 66 63 59 56 56 59 61 62 61 61 59 53 46 42 41 44 49 50 46 39 42 43 42 41 42 44 45 46 45 48
70 73 76 77 78 77 77 76 76 76 74 71 68 67 67 64 60 59 56 60 63 65 60 50 54 49 47 45 47 51 51 47 45 44 44 46 42 43 45 49 52 52 53
54 55 57 54 56 65 75 83 82 81 78 75 71 70 70 69 64 61 58 55 61 62 65 64 62 56 41 38 51 50 51 52 51 49 47 48 49 48 48 54 57 58 59
47 50 53 53 52 54 55 60 65 76 81 80 77 75 72 72 70 65 62 58 62 63 65 64 62 64 68 60 48 51 49 48 50 52 52 52 53 51 52 56 60 61 66
40 32 33 36 40 43 55 55 59 58 64 73 79 77 76 73 71 70 66 63 62 61 59 62 64 65 66 65 65 58 56 59 53 57 63 57 58 62 63 60 60 62 60
Wind_Direction
259 259 243 241 244 247 249 250 256 257 260 258 257 253 259 259 248 240 245 243 239 210 194 178 152 158 152 150 147 153 167 170 194 259 308 349 8 12 9 14 21 27 29
262 262 258 247 242 244 248 248 248 255 258 261 263 262 259 261 260 251 242 242 245 237 221 210 195 180 181 191 174 166 171 183 192 206 231 317 357 350 348 353 4 13 18
264 260 257 257 253 247 248 251 251 252 256 259 262 264 262 260 260 261 256 248 243 243 240 230 222 220 209 198 208 205 194 209 215 214 228 270 299 321 335 337 341 348 357
263 261 260 256 256 254 251 252 255 255 255 256 258 261 262 261 260 259 259 259 256 248 247 241 236 233 234 230 225 230 228 230 238 240 239 245 261 277 299 313 322 329 340
259 262 262 260 258 258 260 256 254 258 259 257 256 256 257 259 262 260 258 258 257 257 249 249 244 238 238 241 240 234 236 241 242 247 254 259 264 272 281 291 300 310 322
257 258 262 263 261 260 258 259 261 261 259 261 260 254 255 257 258 261 260 256 258 256 256 254 252 249 243 242 246 249 249 248 249 249 252 260 264 268 272 278 285 293 301
256 256 257 258 261 262 259 261 262 262 266 268 275 268 253 252 254 256 261 260 257 257 256 254 255 254 253 247 246 249 252 255 259 261 260 260 263 266 272 278 284 290 296
258 256 255 256 256 258 260 261 263 264 261 262 271 275 271 256 251 251 254 259 259 257 256 255 253 254 254 256 250 248 251 254 258 262 267 270 270 270 271 274 278 283 287
258 257 256 256 255 254 257 260 261 263 264 260 261 263 268 268 259 252 252 253 258 260 261 258 258 256 255 256 257 256 252 254 257 261 265 268 271 273 274 275 277 280 284
256 257 256 255 256 255 254 256 259 261 261 260 261 263 260 260 259 258 255 254 255 257 259 261 261 260 260 260 260 260 260 260 260 261 263 266 269 271 272 275 278 280 283
255 257 256 256 254 255 254 255 256 258 259 260 260 260 260 259 260 260 260 259 258 257 255 257 259 261 260 260 261 262 263 264 264 266 267 269 271 274 277 278 279 281 283
254 256 257 257 257 255 255 254 254 256 257 259 258 258 259 260 262 263 264 265 267 264 260 258 257 258 259 261 262 263 264 266 267 268 269 270 271 272 275 278 280 282 283
256 255 256 258 258 258 256 256 255 254 255 257 258 258 257 256 256 259 262 265 267 269 262 259 258 257 258 260 260 261 266 268 268 268 270 273 275 276 276 278 280 282 284
261 259 258 257 258 258 258 257 256 255 254 254 255 257 258 259 258 258 258 262 264 265 266 266 264 260 259 258 260 263 265 265 266 267 268 269 271 273 276 278 281 284 285
260 261 260 261 261 259 259 259 258 257 255 254 253 254 255 256 258 258 256 257 260 262 262 264 264 267 270 269 267 266 265 265 265 266 267 268 270 271 273 274 277 279 280
261 262 262 262 261 262 261 260 259 259 258 256 255 255 255 254 256 256 256 259 258 256 262 261 262 264 270 272 274 273 270 266 265 263 264 267 268 271 272 273 275 276 278
261 262 263 263 261 261 262 262 260 260 260 259 256 255 256 255 253 255 256 255 258 261 262 260 258 265 265 267 268 269 272 271 268 266 265 264 270 274 274 275 278 280 280
264 263 264 263 262 261 260 259 261 260 260 259 258 257 256 256 255 253 254 256 258 259 264 264 262 260 263 269 268 267 266 269 270 269 267 271 272 275 280 279 279 279 280
266 264 263 264 262 260 259 259 257 259 259 260 259 258 256 255 255 258 256 257 255 260 260 262 261 265 267 267 267 269 267 268 267 265 269 272 277 273 277 280 282 283 282
265 264 263 261 262 260 258 257 256 255 257 257 259 258 258 256 254 254 256 258 258 249 251 252 261 263 269 267 267 270 271 268 266 265 269 271 274 274 279 280 282 288 288
270 269 267 265 262 262 260 258 255 254 252 253 256 257 256 257 254 252 251 252 252 249 247 257 251 261 262 258 264 267 268 268 269 266 267 271 276 276 278 284 285 287 284
274 272 269 265 263 260 258 257 256 254 252 250 251 254 255 254 256 255 251 249 251 251 253 251 256 260 250 259 267 269 266 269 269 265 271 279 279 280 284 285 285 285 285
270 267 264 261 259 258 256 253 252 252 251 250 248 250 253 253 253 255 255 251 250 252 252 249 254 256 250 253 267 265 263 262 262 267 271 276 279 282 284 287 287 286 285
275 273 272 271 269 265 263 256 250 249 249 248 246 245 247 248 249 250 251 254 253 253 249 248 251 243 244 254 263 264 258 264 264 265 272 276 278 282 286 287 285 286 287
289 276 267 268 270 266 265 263 261 253 250 245 245 245 244 246 248 248 249 246 251 246 252 251 251 248 250 253 255 251 252 255 267 272 278 279 275 276 281 284 284 287 289
299 286 272 269 267 271 260 258 256 254 253 248 244 242 243 243 245 247 247 247 249 251 254 255 252 253 253 247 247 250 255 260 275 280 282 282 279 280 284 283 285 288 288